This demonstration page uses our WeatherBlox Daily Observations layout. Learn more.

Left ArrowRight Arrow

39.92423, -83.80882

Hourly Observations for February 5, 2021

Temp ( °F °C ) Dew Point ( °F °C ) Humidity (%) Winds ( mph kmh ) Pressure ( in mb ) Visibility ( mi km ) Precip ( " mm )
12:50 am 00:50 Cloudy 32 0 28 -2 87 87 WSW 22 35 29.58 1002 10 16 0.00 0.00
12:56 am 00:56 Cloudy 32 0 29 -1.7 88 88 W 23 37 29.56 1001 10 16 0.00 0.00
1:56 am 01:56 Cloudy 31 -0.6 28 -2.2 89 89 W 24 39 29.60 1002 10 16 0.00 0.00
2:56 am 02:56 Cloudy 29 -1.7 25 -3.9 85 85 W 28 44 29.64 1004 10 16 0.00 0.00
3:56 am 03:56 Cloudy 28 -2.2 25 -3.9 88 88 W 23 37 29.67 1005 10 16 0.00 0.00
4:56 am 04:56 Cloudy 26 -3.3 22 -5.6 84 84 W 22 35 29.69 1005 10 16 0.00 0.00
5:56 am 05:56 Cloudy 26 -3.3 22 -5.6 84 84 W 18 30 29.70 1006 10 16 0.00 0.00
6:51 am 06:51 Partly Cloudy 21 -6 12 -11 68 68 WSW 31 50 29.76 1008 10 16 0.00 0.00
6:56 am 06:56 Partly Cloudy 22 -5.6 12 -11.1 66 66 W 24 39 29.72 1007 10 16 0.00 0.00
7:53 am 07:53 Mostly Cloudy 19 -7 14 -10 79 79 WSW 9 15 29.78 1009 10 16 0.00 0.00
7:56 am 07:56 Mostly Cloudy 20 -6.7 15 -9.4 81 81 WSW 9 15 29.75 1007 10 16 0.00 0.00
8:13 am 08:13 Partly Cloudy 19 -7 16 -9 86 86 WSW 10 17 29.79 1009 10 16 0.00 0.00
8:56 am 08:56 Sunny 22 -5.6 15 -9.4 75 75 WSW 24 39 29.75 1007 10 16 0.00 0.00
9:56 am 09:56 Sunny 25 -3.9 15 -9.4 66 66 WSW 20 31 29.75 1008 10 16 0.00 0.00
10:56 am 10:56 Mostly Cloudy 26 -3.3 16 -8.9 66 66 W 23 37 29.77 1008 10 16 0.00 0.00
11:56 am 11:56 Mostly Cloudy 28 -2.2 18 -7.8 66 66 WSW 23 37 29.77 1008 10 16 0.00 0.00
12:56 pm 12:56 Windy with Snow Likely 28 -2.2 19 -7.2 69 69 WSW 21 33 29.77 1008 9 14 0.00 0.00
1:56 pm 13:56 Windy with Snow Likely 28 -2.2 20 -6.7 72 72 W 21 33 29.78 1008 9 14 0.00 0.00
2:56 pm 14:56 Windy with Snow Likely 29 -1.7 21 -6.1 72 72 WSW 21 33 29.78 1008 9 14 0.00 0.00
3:56 pm 15:56 Cloudy with Light Snow 29 -1.7 21 -6.1 72 72 WSW 16 26 29.78 1009 9 14 0.00 0.00
4:56 pm 16:56 Cloudy with Light Snow 29 -1.7 21 -6.1 72 72 WSW 14 22 29.79 1009 9 14 0.00 0.00
5:56 pm 17:56 Cloudy 30 -1.1 22 -5.6 72 72 WSW 15 24 29.80 1009 9 14 0.00 0.00
6:56 pm 18:56 Cloudy 30 -1.1 22 -5.6 72 72 WSW 8 13 29.82 1010 10 16 0.00 0.00
7:56 pm 19:56 Cloudy 30 -1.1 22 -5.6 72 72 SW 10 17 29.83 1010 10 16 0.00 0.00
8:56 pm 20:56 Cloudy 29 -1.7 22 -5.6 75 75 WSW 9 15 29.85 1011 10 16 0.00 0.00
9:56 pm 21:56 Cloudy with Light Snow 29 -1.7 22 -5.6 75 75 W 13 20 29.85 1011 9 14 0.00 0.00
10:56 pm 22:56 Cloudy 29 -1.7 22 -5.6 75 75 W 20 31 29.87 1012 10 16 0.00 0.00
11:56 pm 23:56 Mostly Cloudy 26 -3.3 20 -6.7 78 78 W 10 17 29.90 1012 10 16 0.00 0.00

Powered by AerisWeather